Regional Weather Roundup
Issued by NWS

Home | Current Version | Previous Version | Graphics & Text | Print | Product List | Glossary On
Versions: 1 2 3 4 5 6 7 8 9 10 11 12 13 14 15 16 17 18 19 20 21 22 23 24 25 26 27 28 29 30 31 32 33 34 35 36 37 38 39 40 41 42 43 44 45 46 47 48 49 50
000
ASUS45 KSLC 291110
RWRUT

UTAH REGIONAL WEATHER ROUNDUP
NATIONAL WEATHER SERVICE SALT LAKE CITY UT
500 AM MDT SUN MAR 29 2015

UTZ001>011-023>025-291200-

NORTHERN UTAH

CITY           SKY/WX    TMP DP  RH WIND       PRES   REMARKS
BRIGHAM CITY   CLEAR     38  21  49 W5        30.28S WCI  35
HILL AFB       CLEAR     40  22  49 NW8       30.28R WCI  34
LOGAN          CLEAR     33  23  66 CALM      30.30R
OGDEN          CLEAR     40  23  50 W6        30.28R
PROVO AIRPORT  CLEAR     43  21  42 CALM      30.28R
SALT LAKE CITY CLEAR     44  26  49 NW6       30.27S
VERNAL         CLEAR     36  11  35 NE6       30.23R WCI  31
WENDOVER       PTCLDY    37  19  48 W9        30.32R WCI  31
HEBER CITY     CLEAR     28  19  69 SE3       30.27S
WEST JORDAN    CLEAR     43  25  49 W3        30.29R

$$

UTZ012>022-026-027-291200-

SOUTHERN/CENTRAL UTAH

CITY           SKY/WX    TMP DP  RH WIND       PRES   REMARKS
BLANDING       CLEAR     53  20  27 CALM      30.25R
BRYCE CANYON   PTCLDY    28  23  81 CALM      30.33S
CEDAR CITY     CLEAR     40  24  53 SW3       30.26S
DELTA          CLEAR     41  18  40 NE5       30.27S
HANKSVILLE     MOCLDY    43  21  42 CALM      30.18S
MILFORD        CLEAR     41  16  36 NW9       30.26S
MOAB/CYNLANDS  CLEAR     50  20  30 SW3       30.14R
PRICE          CLEAR     46  14  27 N8        30.22R
ST GEORGE      SUNNY     55  23  28 SW5       30.14R
KANAB          CLEAR     37  25  60 NE6       30.24S WCI  33

$$

REGIONAL REPORTS     COLORADO/ARIZONA

CITY           SKY/WX    TMP DP  RH WIND       PRES   REMARKS
CRAIG, CO      CLEAR     34  20  56 S8        30.28R WCI  27
GRAND JUNCTION PTCLDY    46  15  28 NE12      30.15R
RIFLE          CLEAR     42  19  39 VRB5      30.23R
MONTROSE       MOCLDY    50  26  39 SE8       30.22S
CORTEZ         CLEAR     33  20  58 E8        30.20S WCI  26
PAGE, AZ       CLEAR     57  23  26 SE5       30.14S
GRAND CANYON   CLEAR     27  20  75 NE5       30.29S WCI  22
KINGMAN        CLEAR     54  20  26 SE7       30.10S
FLAGSTAFF      CLEAR     40  19  43 W3        30.29F

$$

REGIONAL REPORTS    NEVADA/IDAHO/WYOMING

CITY           SKY/WX    TMP DP  RH WIND       PRES   REMARKS
LAS VEGAS, NV  CLEAR     64  20  18 S10       29.99R
ELY            PTCLDY    29  12  49 S9        30.33S WCI  20
ELKO           MOCLDY    24  13  62 CALM      30.32S
POCATELLO, ID  CLEAR     38  20  48 SW12      30.33R WCI  30
BURLEY         PTCLDY    33  20  58 CALM      30.31F
EVANSTON, WY   PTCLDY    35  16  45 N5        30.30S WCI  31
ROCK SPRINGS   PTCLDY    32  16  51 W9        30.30R WCI  24

$$


USA.gov is the U.S. government's official web portal to all federal, state and local government web resources and services.